DW2217 Weather Reports


time (UTC)temp
C
wind
direction
speed
KPH
gust
KPH
rain 1hr
cm
rain 24hr
cm
rain mn
cm
humidity
%
barometer
mb
20260831060707 12 351 3.2 4.8 0.00 0.00 0.00 96 1018.1
20260831060206 13 13 3.2 3.2 0.00 0.00 0.00 96 1018.0
20260831055701 13 359 3.2 3.2 0.00 0.00 0.00 95 1018.0
20260831055155 13 350 3.2 3.2 0.00 0.00 0.00 94 1017.9
20260831054650 13 1 3.2 3.2 0.00 0.00 0.00 95 1017.9
20260831054150 13 10 3.2 3.2 0.00 0.00 0.00 96 1017.8
20260831053644 13 11 3.2 3.2 0.00 0.00 0.00 95 1017.9
20260831053143 13 358 3.2 3.2 0.00 0.00 0.00 93 1017.9
20260831052643 13 18 3.2 3.2 0.00 0.00 0.00 94 1017.8
20260831052142 13 31 1.6 3.2 0.00 0.00 0.00 94 1017.6
20260831051640 13 29 0.0 0.0 0.00 0.00 0.00 94 1017.5
20260831051139 13 29 1.6 3.2 0.00 0.00 0.00 96 1017.7
20260831050634 13 60 0.0 3.2 0.00 0.00 0.00 96 1017.7
20260831050133 13 49 1.6 3.2 0.00 0.00 0.00 96 1017.4
20260831045632 13 36 0.0 0.0 0.00 0.00 0.00 95 1017.5
20260831045127 13 17 1.6 3.2 0.00 0.00 0.00 95 1017.3
20260831044623 13 15 1.6 3.2 0.00 0.00 0.00 94 1017.3
20260831044118 13 5 3.2 3.2 0.00 0.00 0.00 93 1017.5
20260831043614 13 20 3.2 3.2 0.00 0.00 0.00 94 1017.4
20260831043109 14 6 3.2 3.2 0.00 0.00 0.00 95 1017.4
20260831042608 14 327 3.2 3.2 0.00 0.00 0.00 94 1017.4
20260831042103 14 297 4.8 4.8 0.00 0.00 0.00 91 1017.3
20260831041558 14 16 3.2 3.2 0.00 0.00 0.00 92 1017.2
20260831041057 14 6 3.2 3.2 0.00 0.00 0.00 92 1017.5
20260831040551 14 358 3.2 4.8 0.00 0.00 0.00 93 1017.4
20260831040046 14 25 3.2 3.2 0.00 0.00 0.00 94 1017.3
20260831035543 14 23 3.2 3.2 0.00 0.10 0.10 95 1017.3
20260831035039 14 8 1.6 3.2 0.00 0.10 0.10 95 1017.2
20260831034538 14 341 3.2 4.8 0.00 0.10 0.10 94 1017.2
20260831034034 14 0 3.2 3.2 0.00 0.10 0.10 94 1017.1
20260831033530 14 9 3.2 3.2 0.00 0.10 0.10 94 1017.0
20260831033025 14 20 3.2 3.2 0.00 0.10 0.10 93 1017.1
20260831032524 14 348 4.8 4.8 0.00 0.10 0.10 94 1017.1
20260831032020 14 351 3.2 4.8 0.00 0.10 0.10 95 1017.0
20260831031519 15 354 4.8 4.8 0.00 0.10 0.10 96 1016.9
20260831031019 15 45 1.6 3.2 0.00 0.10 0.10 97 1017.1
20260831030518 15 46 0.0 0.0 0.00 0.10 0.10 96 1016.7
20260831030017 15 4 0.0 3.2 0.13 0.10 0.10 96 1016.9
20260831025510 15 14 0.0 0.0 0.13 0.10 0.10 96 1017.2
20260831025005 15 9 3.2 3.2 0.00 0.08 0.08 95 1017.1
20260831024500 15 2 3.2 3.2 0.00 0.08 0.08 95 1017.0
20260831023954 15 1 3.2 3.2 0.00 0.08 0.08 94 1017.2
20260831023452 15 17 3.2 3.2 0.00 0.08 0.08 93 1017.3
20260831022948 15 350 3.2 3.2 0.18 0.08 0.08 92 1017.4
20260831022446 15 36 1.6 3.2 0.18 0.08 0.08 91 1017.3
20260831021942 15 21 3.2 3.2 0.00 0.05 0.05 91 1017.4
20260831021441 15 329 4.8 4.8 0.00 0.05 0.05 90 1017.5
20260831020937 15 15 3.2 4.8 0.00 0.05 0.05 89 1017.7
20260831020437 15 349 4.8 4.8 0.00 0.05 0.05 89 1017.5
20260831015931 15 5 3.2 4.8 0.00 0.05 0.05 89 1017.6
20260831015428 15 325 4.8 11.3 0.00 0.05 0.05 88 1017.6
20260831014922 16 22 1.6 3.2 0.00 0.05 0.05 89 1017.4
20260831014417 16 6 3.2 4.8 0.30 0.05 0.05 88 1017.5
20260831013913 17 49 1.6 4.8 0.30 0.05 0.05 85 1017.4
20260831013408 18 290 14.5 16.1 0.00 0.00 0.00 76 1017.4
20260831012902 19 292 8.0 8.0 0.00 0.00 0.00 69 1017.1
20260831012358 19 5 6.4 11.3 0.00 0.00 0.00 73 1017.0
20260831011857 19 295 8.0 8.0 0.00 0.00 0.00 78 1016.7
20260831011352 19 311 1.6 3.2 0.00 0.00 0.00 78 1015.8
20260831010848 19 309 3.2 4.8 0.00 0.00 0.00 76 1015.7
20260831010348 18 308 3.2 3.2 0.00 0.00 0.00 79 1015.4
20260831005844 18 307 3.2 3.2 0.00 0.00 0.00 83 1015.4
20260831005339 18 305 3.2 3.2 0.00 0.00 0.00 85 1015.4
20260831004834 19 306 3.2 4.8 0.00 0.00 0.00 81 1015.4
20260831004330 19 307 1.6 3.2 0.00 0.00 0.00 80 1015.5
20260831003826 19 307 3.2 3.2 0.00 0.00 0.00 80 1015.4
20260831003322 19 307 0.0 3.2 0.00 0.00 0.00 80 1015.4
20260831002820 19 307 0.0 0.0 0.00 0.00 0.00 79 1015.2
20260831002314 19 307 0.0 0.0 0.00 0.00 0.00 80 1015.4
20260831001810 19 307 0.0 0.0 0.00 0.00 0.00 80 1015.2
20260831001305 19 307 0.0 0.0 0.00 0.00 0.00 79 1015.3
20260831000803 20 306 0.0 0.0 0.00 0.00 0.00 80 1015.2
20260831000303 20 305 0.0 0.0 0.00 0.00 0.00 81 1015.0
20260830235801 20 305 1.6 3.2 0.00 0.00 0.00 75 1014.9
20260830235256 20 305 0.0 3.2 0.00 0.00 0.00 74 1015.1
20260830234751 20 302 3.2 3.2 0.00 0.00 0.00 72 1015.0
20260830234247 20 283 4.8 4.8 0.00 0.00 0.00 72 1015.0
20260830233743 20 308 3.2 3.2 0.00 0.00 0.00 74 1014.9
20260830233238 20 300 3.2 3.2 0.00 0.00 0.00 75 1014.9
20260830232733 20 266 3.2 4.8 0.00 0.00 0.00 74 1015.0
20260830232229 20 262 4.8 4.8 0.00 0.00 0.00 74 1014.7
20260830231725 20 258 4.8 4.8 0.00 0.00 0.00 76 1014.8
20260830231225 20 263 6.4 8.0 0.00 0.00 0.00 78 1014.7
20260830230720 20 260 4.8 8.0 0.00 0.00 0.00 79 1014.9
20260830230215 20 255 4.8 8.0 0.00 0.00 0.00 78 1014.6
20260830225709 20 239 8.0 8.0 0.00 0.00 0.00 76 1014.7
20260830225204 21 237 4.8 8.0 0.00 0.00 0.00 74 1014.7
20260830224702 21 259 4.8 4.8 0.00 0.00 0.00 74 1014.9
20260830224159 20 247 4.8 4.8 0.00 0.00 0.00 75 1014.8
20260830223655 20 238 3.2 4.8 0.00 0.00 0.00 81 1014.8
20260830223150 21 239 3.2 3.2 0.00 0.00 0.00 77 1014.9
20260830222644 21 238 1.6 3.2 0.00 0.00 0.00 74 1014.7
20260830222140 21 238 1.6 3.2 0.00 0.00 0.00 74 1014.8
20260830221635 21 240 3.2 4.8 0.00 0.00 0.00 72 1014.8
20260830221132 21 244 4.8 8.0 0.00 0.00 0.00 70 1014.9
20260830220627 21 236 4.8 8.0 0.00 0.00 0.00 71 1014.7
20260830220126 21 232 4.8 8.0 0.00 0.00 0.00 71 1014.8
20260830215625 21 233 8.0 8.0 0.00 0.00 0.00 72 1014.7
20260830215119 21 233 6.4 8.0 0.00 0.00 0.00 71 1014.6
20260830214614 21 236 8.0 8.0 0.00 0.00 0.00 72 1014.8
20260830214104 21 238 8.0 8.0 0.00 0.00 0.00 72 1014.6
20260830213603 21 250 6.4 8.0 0.00 0.00 0.00 73 1014.8
20260830213059 21 244 4.8 8.0 0.00 0.00 0.00 72 1014.5
20260830212555 21 254 6.4 8.0 0.00 0.00 0.00 71 1014.9
20260830212054 21 254 6.4 8.0 0.00 0.00 0.00 72 1014.8
20260830211549 21 253 4.8 8.0 0.00 0.00 0.00 71 1014.9
20260830211044 21 251 4.8 8.0 0.00 0.00 0.00 71 1014.6
20260830210539 21 264 6.4 8.0 0.00 0.00 0.00 71 1014.7
20260830210038 22 249 8.0 11.3 0.00 0.00 0.00 69 1014.6
20260830205536 22 241 9.7 11.3 0.00 0.00 0.00 70 1014.7
20260830205032 22 239 9.7 14.5 0.00 0.00 0.00 71 1014.7
20260830204531 22 236 11.3 11.3 0.00 0.00 0.00 72 1014.8
20260830204030 22 256 8.0 11.3 0.00 0.00 0.00 70 1014.6
20260830203527 22 249 8.0 11.3 0.00 0.00 0.00 71 1014.8
20260830203021 22 243 8.0 11.3 0.00 0.00 0.00 71 1014.8
20260830202516 21 228 9.7 11.3 0.00 0.00 0.00 73 1014.8
20260830202012 21 249 8.0 11.3 0.00 0.00 0.00 73 1014.9
20260830201511 21 234 8.0 11.3 0.00 0.00 0.00 72 1015.0
20260830201006 21 245 8.0 8.0 0.00 0.00 0.00 73 1015.0
20260830200506 21 230 9.7 14.5 0.00 0.00 0.00 71 1014.9
20260830200005 22 246 8.0 11.3 0.00 0.00 0.00 71 1015.1
20260830195501 22 260 8.0 11.3 0.00 0.00 0.00 71 1015.1
20260830194959 22 263 8.0 8.0 0.00 0.00 0.00 71 1015.2
20260830194458 22 250 8.0 8.0 0.00 0.00 0.00 71 1015.2
20260830193948 22 256 8.0 11.3 0.00 0.00 0.00 68 1015.3
20260830193447 22 248 6.4 8.0 0.00 0.00 0.00 71 1015.3
20260830192942 22 249 6.4 11.3 0.00 0.00 0.00 69 1015.5
20260830192437 22 254 4.8 8.0 0.00 0.00 0.00 70 1015.5
20260830191933 22 245 6.4 8.0 0.00 0.00 0.00 71 1015.4
20260830191432 22 253 4.8 4.8 0.00 0.00 0.00 71 1015.4
20260830190928 22 236 4.8 8.0 0.00 0.00 0.00 71 1015.4
20260830190423 21 232 6.4 8.0 0.00 0.00 0.00 72 1015.8
20260830185922 21 255 8.0 11.3 0.00 0.00 0.00 71 1015.7
20260830185417 21 254 6.4 8.0 0.00 0.00 0.00 72 1015.6
20260830184913 21 269 6.4 8.0 0.00 0.00 0.00 71 1015.7
20260830184412 21 266 4.8 8.0 0.00 0.00 0.00 73 1015.9
20260830183911 21 266 4.8 4.8 0.00 0.00 0.00 73 1015.9
20260830183406 21 265 4.8 4.8 0.00 0.00 0.00 74 1016.1
20260830182902 21 254 6.4 8.0 0.00 0.00 0.00 73 1016.1
20260830182357 21 263 4.8 4.8 0.00 0.00 0.00 74 1016.3
20260830181853 21 258 4.8 4.8 0.00 0.00 0.00 74 1016.3
20260830181349 21 240 8.0 8.0 0.00 0.00 0.00 74 1016.4
20260830180849 21 245 6.4 8.0 0.00 0.00 0.00 72 1016.5
20260830180343 21 247 4.8 4.8 0.00 0.00 0.00 74 1016.6
20260830175842 21 266 4.8 4.8 0.00 0.00 0.00 75 1016.5
20260830175337 21 253 4.8 8.0 0.00 0.00 0.00 73 1016.9
20260830174832 21 252 8.0 8.0 0.00 0.00 0.00 72 1016.6
20260830174327 21 251 8.0 8.0 0.00 0.00 0.00 73 1016.7
20260830173827 21 255 8.0 8.0 0.00 0.00 0.00 72 1017.0
20260830173323 21 266 8.0 11.3 0.00 0.00 0.00 71 1016.9
20260830172819 21 244 9.7 11.3 0.00 0.00 0.00 71 1017.2
20260830172315 21 248 8.0 8.0 0.00 0.00 0.00 71 1017.1
20260830171811 21 264 8.0 11.3 0.00 0.00 0.00 70 1017.0
20260830171306 21 261 9.7 11.3 0.00 0.00 0.00 69 1017.1
20260830170801 21 252 8.0 11.3 0.00 0.00 0.00 70 1017.3
20260830170300 21 252 8.0 11.3 0.00 0.00 0.00 71 1017.1
20260830165759 21 267 8.0 11.3 0.00 0.00 0.00 70 1017.0
20260830165255 21 261 8.0 11.3 0.00 0.00 0.00 69 1017.2
20260830164751 21 266 9.7 11.3 0.00 0.00 0.00 70 1017.2
20260830164247 21 267 9.7 11.3 0.00 0.00 0.00 68 1017.3
20260830163743 21 267 8.0 11.3 0.00 0.00 0.00 70 1017.1
20260830163239 21 281 8.0 8.0 0.00 0.00 0.00 70 1017.2
20260830162733 21 258 6.4 8.0 0.00 0.00 0.00 71 1017.3
20260830162229 21 254 8.0 8.0 0.00 0.00 0.00 69 1017.3
20260830161724 21 266 6.4 8.0 0.00 0.00 0.00 71 1017.3
20260830161218 21 259 8.0 11.3 0.00 0.00 0.00 69 1017.4
20260830160714 21 265 6.4 8.0 0.00 0.00 0.00 70 1017.2
20260830160209 21 261 6.4 8.0 0.00 0.00 0.00 70 1017.2
20260830155706 21 262 6.4 8.0 0.00 0.00 0.00 70 1017.3
20260830155201 21 260 4.8 8.0 0.00 0.00 0.00 70 1017.3
20260830154656 21 264 8.0 8.0 0.00 0.00 0.00 70 1017.3
20260830154152 21 269 6.4 8.0 0.00 0.00 0.00 69 1017.2
20260830153649 21 261 6.4 8.0 0.00 0.00 0.00 69 1017.3
20260830153148 21 267 4.8 8.0 0.00 0.00 0.00 67 1017.3
20260830152647 21 269 4.8 8.0 0.00 0.00 0.00 68 1017.4
20260830152146 21 252 8.0 8.0 0.00 0.00 0.00 69 1017.5
20260830151642 21 261 8.0 8.0 0.00 0.00 0.00 68 1017.5
20260830151141 21 248 6.4 8.0 0.00 0.00 0.00 70 1017.6
20260830150636 21 285 6.4 8.0 0.00 0.00 0.00 70 1017.5
20260830150131 21 255 4.8 8.0 0.00 0.00 0.00 68 1017.6
20260830145630 21 257 6.4 8.0 0.00 0.00 0.00 69 1017.7
20260830145125 21 243 4.8 8.0 0.00 0.00 0.00 67 1017.8
20260830144621 21 266 4.8 8.0 0.00 0.00 0.00 69 1017.7
20260830144116 21 244 4.8 4.8 0.00 0.00 0.00 69 1017.5
20260830143612 21 271 4.8 4.8 0.00 0.00 0.00 69 1017.7
20260830143110 21 268 4.8 8.0 0.00 0.00 0.00 67 1017.8
20260830142606 21 281 3.2 4.8 0.00 0.00 0.00 69 1017.9
20260830142101 20 276 4.8 4.8 0.00 0.00 0.00 69 1017.8
20260830141556 20 278 4.8 8.0 0.00 0.00 0.00 68 1017.5
20260830141051 20 268 4.8 4.8 0.00 0.00 0.00 69 1017.7
20260830140545 20 276 8.0 8.0 0.00 0.00 0.00 70 1017.8
20260830140041 20 264 8.0 8.0 0.00 0.00 0.00 69 1017.7
20260830135536 20 254 8.0 11.3 0.00 0.00 0.00 70 1017.9
20260830135031 20 259 8.0 11.3 0.00 0.00 0.00 70 1017.8
20260830134527 20 265 8.0 11.3 0.00 0.00 0.00 69 1017.9
20260830134022 20 252 9.7 11.3 0.00 0.00 0.00 69 1017.9
20260830133517 20 265 11.3 11.3 0.00 0.00 0.00 69 1017.9
20260830133012 20 269 9.7 11.3 0.00 0.00 0.00 68 1017.8
20260830132509 20 275 11.3 11.3 0.00 0.00 0.00 67 1017.9
20260830132008 20 254 9.7 14.5 0.00 0.00 0.00 68 1018.0
20260830131507 19 249 12.9 14.5 0.00 0.00 0.00 68 1018.0
20260830131002 19 271 11.3 14.5 0.00 0.00 0.00 69 1018.0
20260830130457 19 267 11.3 14.5 0.00 0.00 0.00 68 1018.1
20260830125955 18 260 11.3 11.3 0.00 0.00 0.00 70 1017.8
20260830125446 18 251 9.7 11.3 0.00 0.00 0.00 70 1017.9
20260830124944 18 271 8.0 11.3 0.00 0.00 0.00 70 1018.0
20260830124439 18 254 8.0 8.0 0.00 0.00 0.00 71 1018.1
20260830123936 18 270 4.8 8.0 0.00 0.00 0.00 72 1018.1
20260830123432 17 273 4.8 4.8 0.00 0.00 0.00 73 1018.2
20260830122930 17 64 0.0 0.0 0.00 0.00 0.00 82 1018.2
20260830122429 17 65 0.0 3.2 0.00 0.00 0.00 82 1018.3
20260830121924 17 92 0.0 3.2 0.00 0.00 0.00 80 1018.2
20260830121420 17 101 1.6 3.2 0.00 0.00 0.00 80 1018.4
20260830120914 17 101 0.0 3.2 0.00 0.00 0.00 79 1018.4
20260830120410 17 101 0.0 0.0 0.00 0.00 0.00 80 1018.2
20260830115906 17 101 0.0 0.0 0.00 0.00 0.00 79 1018.2
20260830115402 17 101 0.0 0.0 0.00 0.00 0.00 81 1018.2
20260830114857 17 101 0.0 3.2 0.00 0.00 0.00 81 1018.0
20260830114354 17 101 0.0 0.0 0.00 0.00 0.00 82 1018.2
20260830113848 17 101 0.0 3.2 0.00 0.00 0.00 83 1018.2
20260830113348 17 101 0.0 3.2 0.00 0.00 0.00 84 1018.3
20260830112844 17 101 0.0 3.2 0.00 0.00 0.00 84 1018.1
20260830112340 17 101 0.0 0.0 0.00 0.00 0.00 83 1018.2
20260830111836 17 101 0.0 0.0 0.00 0.00 0.00 82 1018.3
20260830111331 17 113 0.0 0.0 0.00 0.00 0.00 82 1018.5
20260830110826 17 113 0.0 3.2 0.00 0.00 0.00 82 1018.2
20260830110322 17 113 0.0 0.0 0.00 0.00 0.00 80 1018.3
20260830105821 16 113 0.0 3.2 0.00 0.00 0.00 82 1018.3
20260830105318 16 113 3.2 3.2 0.00 0.00 0.00 82 1018.1
20260830104814 16 113 1.6 3.2 0.00 0.00 0.00 82 1018.3
20260830104310 16 113 3.2 4.8 0.00 0.00 0.00 82 1018.3
20260830103809 16 121 0.0 0.0 0.00 0.00 0.00 82 1018.4
20260830103305 16 121 0.0 0.0 0.00 0.00 0.00 83 1018.3
20260830102803 16 121 0.0 0.0 0.00 0.00 0.00 82 1018.4
20260830102259 16 121 0.0 3.2 0.00 0.00 0.00 82 1018.6
20260830101754 16 121 0.0 0.0 0.00 0.00 0.00 82 1018.4
20260830101250 16 121 0.0 3.2 0.00 0.00 0.00 83 1018.4
20260830100748 16 121 0.0 3.2 0.00 0.00 0.00 84 1018.6
20260830100244 16 120 0.0 0.0 0.00 0.00 0.00 82 1018.6
20260830095742 16 120 3.2 3.2 0.00 0.00 0.00 82 1018.6
20260830095239 16 121 0.0 3.2 0.00 0.00 0.00 83 1018.6
20260830094734 16 120 0.0 3.2 0.00 0.00 0.00 82 1018.5
20260830094231 15 121 0.0 3.2 0.00 0.00 0.00 83 1018.6
20260830093725 15 132 0.0 0.0 0.00 0.00 0.00 87 1018.6
20260830093221 15 133 0.0 3.2 0.00 0.00 0.00 87 1018.8
20260830092721 15 132 0.0 0.0 0.00 0.00 0.00 82 1018.7
20260830092218 15 132 1.6 3.2 0.00 0.00 0.00 82 1018.7
20260830091714 15 133 0.0 0.0 0.00 0.00 0.00 84 1018.8
20260830091213 15 133 3.2 3.2 0.00 0.00 0.00 90 1018.8
20260830090712 15 133 0.0 0.0 0.00 0.00 0.00 90 1018.6
20260830090209 15 132 0.0 3.2 0.00 0.00 0.00 87 1018.8
20260830085707 15 133 0.0 3.2 0.00 0.00 0.00 89 1018.8
20260830085204 16 131 0.0 0.0 0.00 0.00 0.00 83 1019.0
20260830084659 16 131 0.0 3.2 0.00 0.00 0.00 78 1018.6
20260830084154 16 131 1.6 3.2 0.00 0.00 0.00 78 1018.7
20260830083649 16 132 1.6 3.2 0.00 0.00 0.00 79 1018.7
20260830083145 15 132 0.0 3.2 0.00 0.00 0.00 78 1018.8
20260830082644 15 134 0.0 0.0 0.00 0.00 0.00 79 1018.8
20260830082140 15 134 0.0 0.0 0.00 0.00 0.00 79 1018.8
20260830081636 15 134 0.0 0.0 0.00 0.00 0.00 79 1018.8
20260830081134 15 134 0.0 0.0 0.00 0.00 0.00 80 1018.8
20260830080629 15 134 0.0 0.0 0.00 0.00 0.00 81 1018.7
20260830080125 15 134 0.0 0.0 0.00 0.00 0.00 87 1018.6
20260830075624 15 136 1.6 3.2 0.00 0.00 0.00 87 1018.7
20260830075119 15 99 0.0 3.2 0.00 0.00 0.00 79 1018.6
20260830074615 15 99 1.6 3.2 0.00 0.00 0.00 78 1018.7
20260830074111 15 100 0.0 3.2 0.00 0.00 0.00 78 1018.7
20260830073607 15 100 0.0 3.2 0.00 0.00 0.00 79 1018.8
20260830073102 15 136 0.0 0.0 0.00 0.00 0.00 77 1018.8
20260830072557 15 136 0.0 0.0 0.00 0.00 0.00 78 1018.7
20260830072052 15 136 0.0 3.2 0.00 0.00 0.00 79 1018.8
20260830071548 15 136 3.2 3.2 0.00 0.00 0.00 80 1018.8
20260830071045 15 136 1.6 3.2 0.00 0.00 0.00 81 1019.0
20260830070540 15 136 0.0 0.0 0.00 0.00 0.00 82 1018.7
20260830070035 15 136 0.0 0.0 0.00 0.00 0.00 81 1018.9
20260830065534 15 136 0.0 0.0 0.00 0.00 0.00 79 1019.1
20260830065032 15 136 0.0 0.0 0.00 0.00 0.00 80 1019.0
20260830064527 15 136 0.0 3.2 0.00 0.00 0.00 84 1019.1
20260830064022 15 136 0.0 0.0 0.00 0.00 0.00 84 1019.2
20260830063522 16 136 0.0 3.2 0.00 0.00 0.00 79 1019.1
20260830063016 15 136 0.0 3.2 0.00 0.00 0.00 75 1019.0
20260830062515 15 136 0.0 0.0 0.00 0.00 0.00 76 1019.2
20260830062010 15 136 0.0 3.2 0.00 0.00 0.00 83 1019.1
20260830061505 15 128 0.0 3.2 0.00 0.00 0.00 76 1019.1